Regional Weather Roundup
Issued by NWS Boston, MA

Current Version | Previous Version | Text Only | Print | Product List | Glossary Off
Versions: 1 2 3 4 5 6 7 8 9 10 11 12 13 14 15 16 17 18 19 20 21 22 23 24 25 26 27 28 29 30 31 32 33 34 35 36 37 38 39 40 41 42 43 44 45 46 47 48 49 50
533 ASUS41 KBOX 120310 RWRBOX REGIONAL WEATHER ROUNDUP NATIONAL WEATHER SERVICE TAUNTON MA 1000 PM EST MON DEC 11 2017 NOTE: "FAIR" INDICATES FEW OR NO CLOUDS BELOW 12,000 FEET WITH NO SIGNIFICANT WEATHER AND/OR OBSTRUCTIONS TO VISIBILITY. MAZALL-120400- EASTERN MASSACHUSETTS CITY SKY/WX TMP DP RH WIND PRES REMARKS BOSTON CLOUDY 35 19 52 N5 30.02F WCI 31 BEVERLY CLOUDY 28 21 75 CALM 30.02S LAWRENCE CLOUDY 31 21 66 NE3 30.04S BEDFORD CLOUDY 27 22 81 CALM 30.01S BLUE HILL NOT AVBL NORWOOD CLOUDY 28 25 88 CALM 30.02F MARSHFIELD CLOUDY 30 27 86 CALM 30.02F PLYMOUTH CLOUDY 30 24 78 CALM 30.02F TAUNTON CLOUDY 27 26 96 CALM 30.02F NEW BEDFORD PTCLDY 27 27 100 CALM 30.01F $$ MAZALL-120400- CAPE COD AND THE ISLANDS CITY SKY/WX TMP DP RH WIND PRES REMARKS FALMOUTH MOCLDY 25 23 93 CALM 30.03F HYANNIS CLEAR 25 22 88 CALM 30.01S CHATHAM CLEAR 28 24 85 CALM 30.03S PROVINCETOWN MOCLDY 30 24 78 CALM 30.03S NANTUCKET MOCLDY 30 26 85 NE7 30.01F WCI 23 MARTHAS VNYRD MOCLDY N/A N/A N/A N6 30.01F $$ MAZALL-120400- CENTRAL AND WESTERN MASSACHUSETTS CITY SKY/WX TMP DP RH WIND PRES REMARKS WORCESTER CLOUDY 30 15 53 CALM 29.96F FITCHBURG CLOUDY 29 24 82 CALM 30.00F ORANGE CLOUDY 25 22 88 CALM 29.98S SPRINGFIELD CLOUDY 27 23 84 CALM 29.98F WESTFIELD CLOUDY 29 23 78 N3 29.98F NORTH ADAMS CLOUDY 28 18 66 CALM 29.96F PITTSFIELD CLOUDY 27 18 69 NE3 29.91F $$ RIZALL-120400- RHODE ISLAND CITY SKY/WX TMP DP RH WIND PRES REMARKS PROVIDENCE CLOUDY 32 26 78 CALM 30.02F NEWPORT MOCLDY 34 21 59 E6 30.00F WCI 29 BLOCK ISLAND N/A N/A N/A N/A MISG N/A SMITHFIELD CLOUDY 29 22 75 E3 29.99F WESTERLY CLOUDY 31 26 82 N3 30.01F $$ CTZALL-120400- CONNECTICUT CITY SKY/WX TMP DP RH WIND PRES REMARKS BRADLEY INTL CLOUDY 31 21 66 CALM 29.99F HARTFORD CLOUDY 33 24 69 CALM 29.99F BRIDGEPORT CLOUDY 37 24 59 N5 30.00S DANBURY CLOUDY 32 24 72 CALM 29.98F GROTON MOCLDY 33 25 72 CALM 30.00F NEW HAVEN CLOUDY 34 25 69 CALM 29.99F CHESTER MOCLDY 32 23 69 CALM 29.98F MERIDEN CLOUDY 29 25 85 CALM 29.99F WILLIMANTIC CLOUDY 30 26 85 CALM 30.00F OXFORD CLOUDY 31 20 63 CALM 29.96F $$ MEZ002-015-021-024-NHZ003-005-008-011-012-014-VTZ005-008-120400- NORTHERN NEW ENGLAND CITY SKY/WX TMP DP RH WIND PRES REMARKS PORTLAND ME CLOUDY 27 16 63 VRB6 30.04R WCI 20 BANGOR ME MOCLDY 18 9 68 NE8 30.06S WCI 8 CONCORD NH CLOUDY 26 20 77 CALM 30.01S MANCHESTER NH CLOUDY 30 22 72 CALM 30.00S NASHUA NH CLOUDY 28 24 85 CALM 30.02R PORTSMOUTH NH CLOUDY 28 20 69 CALM 30.01S JAFFREY NH CLOUDY 25 22 88 CALM 29.96S KEENE NH CLOUDY 25 21 85 CALM 29.99S BURLINGTON VT CLOUDY 17 9 70 CALM 29.98S MT. WASHINGTON MOCLDY 5 -20 30 W29 N/A WCI -19 $$ NYZ052-076-120400- EASTERN NEW YORK CITY SKY/WX TMP DP RH WIND PRES REMARKS ALBANY CLOUDY 30 19 63 S3 29.97F NEW YORK CITY MOCLDY 40 21 46 S7 29.98F $$ ANZALL-120400- MARINE OBSERVATIONS STATION/POSITION TIME TEMP WIND PRES VSBY WAVE AIR SEA DIR/SP/G HT/PER (UTC) (F) (DEG/KT/KT) (MB) (MI) (FT/S) BOSTON BUOY 0250 38 48 290/ 2/ 8 1015.7F 1/11 BUZZARDS BAY 0200 38 30/ 8/ 10 1016.9F NANTUCKET SOUND 0250 38 44 20/ 6/ 8 1016.5F 1 MASS BAY-STELLWA 0204 37 47 340/ 8/ 10 1016.3R 2/11 ISLE OF SHOALS 0200 34 10/ 7/ 9 1016.4R S OF BLOCK IS 0243 53 N/A 4/ 9 $$ ......................KEY......................... SKY/WX - SKY CONDITION/PRESENT WEATHER TMP - TEMPERATURE IN FAHRENHEIT DWPT - DEWPOINT IN FAHRENHEIT RH - RELATIVE HUMIDITY IN PERCENT WIND - DIRECTION AND SPEED IN MPH PRES - MEAN SEA LEVEL PRESSURE IN INCHES OF HG WCI - WIND CHILL INDEX VSB - VISIBILITY IN MILES HX - HEAT INDEX TC - TEMPERATURE IN CELSIUS VRB - VARIABLE WIND DIRECTION N/A - NOT AVAILABLE

USA.gov is the U.S. government's official web portal to all federal, state and local government web resources and services.